Regional Weather Roundup
Issued by NWS

Home | Current Version | Previous Version | Text Only | Print | Product List | Glossary On
Versions: 1 2 3 4 5 6 7 8 9 10 11 12 13 14 15 16 17 18 19 20 21 22 23 24 25 26 27 28 29 30 31 32 33 34 35 36 37 38 39 40 41 42 43 44 45 46 47 48 49 50
000
ASCA44 KEWX 162020
RWRMX

LATIN AMERICA AND CARIBBEAN REGIONAL WEATHER ROUNDUP
NATIONAL WEATHER SERVICE AUSTIN/SAN ANTONIO TX
200 PM CST MON JAN 16 2017

NOTE: "FAIR" INDICATED FEW OR NO CLOUDS BELOW 12,000 FEET WITH NO
SIGNIFICANT WEATHER AND/OR OBSTRUCTIONS TO VISIBILITY.

BAJA CALIFORNIA

CITY           SKY/WX    TMP DP  RH WIND       PRES   REMARKS
LORETO         MOSUNNY   66  52  59 NE12      29.98F
LA PAZ         MOSUNNY   70  48  46 N12       30.01F
MEXICALI       PTSUNNY   59  54  82 CALM      30.07F
S.J. DEL CABO  MOSUNNY   72  45  37 CALM      30.01F
TIJUANA        PTSUNNY   61  45  55 N7        30.06F

NORTHWESTERN MEXICO

CITY           SKY/WX    TMP DP  RH WIND       PRES   REMARKS
CULIACAN       MOSUNNY   72  48  43 S5        29.97F
DURANGO        MOSUNNY   68  21  17 SW20      30.08F
GUAYMAS        MOSUNNY   68  54  60 CALM      29.95F
HERMOSILLO     PTSUNNY   66  46  48 SW6       30.01F
CD. JUAREZ     MOSUNNY   55  43  62 W5        29.95F
LOS MOCHIS     SUNNY     70  41  35 N12       29.99F
OBREGON        MOSUNNY   68  41  37 NW6       29.95F

NORTHEASTERN MEXICO

CITY           SKY/WX    TMP DP  RH WIND       PRES   REMARKS
CHIHUAHUA      SUNNY     57  30  35 NE5       30.02F
MATAMOROS      PTSUNNY   81  68  65 S21       29.89F
MONCLOVA       PTSUNNY   70  46  43 N7        29.95F
MONTERREY      CLOUDY    75  55  50 E7        29.91F
NUEVO LAREDO   CLOUDY    70  59  68 NW9       29.93F
PIEDRAS NEGRAS MOSUNNY   73  54  49 NW7       29.96F
REYNOSA        CLOUDY    75  59  57 CALM      29.89F
SALTILLO         N/A    N/A N/A N/A MISG        N/A
TORREON        PTSUNNY   73  32  21 NE5       29.96F
CD. VICTORIA   PTSUNNY   82  61  47 SE8       29.89F

WESTERN MEXICO

CITY           SKY/WX    TMP DP  RH WIND       PRES   REMARKS
AGUASCALIENTES SUNNY     72  28  20 SW13      30.17F
COLIMA         SUNNY     81  54  39 CALM      30.01F
DEL BAJIO      SUNNY     72  34  25 SW6       30.21F
GUADALAJARA    SUNNY     75  34  22 CALM      30.11
MANZANILLO     SUNNY     81  72  74 SW12      29.86
MAZATLAN       CLOUDY    72  57  60 NW6       29.97F
P. VALLARTA    MOSUNNY   77  68  73 SW8       29.93F
URUAPAN        SUNNY     73  52  46 S12       30.13F
ZACATECAS      PTSUNNY   70  27  19 SW28      30.16F

CENTRAL MEXICO

CITY           SKY/WX    TMP DP  RH WIND       PRES   REMARKS
CUERNAVACA     SUNNY     79  41  25 CALM      30.07F
MEXICO CITY    SUNNY     70  28  21 NE7       30.21F
MORELIA        SUNNY     73  37  27 SE8       30.14F
POZA RICA      MOSUNNY   82  68  61 CALM      29.92F
PUEBLA         SUNNY     70  32  24 S12       30.23F
QUERETARO      SUNNY     72  37  28 CALM      30.19F
S. LUIS POTOSI MOSUNNY   75  27  16 S9        30.11F
TAMPICO        MOSUNNY   81  68  65 S14       29.89F
TOLUCA         SUNNY     66  34  30 SE15      30.27F

SOUTHERN MEXICO

CITY           SKY/WX    TMP DP  RH WIND       PRES   REMARKS
ACAPULCO       SUNNY     84  77  79 S6        29.87F HX  94
B. DE HUATULCO   N/A    N/A N/A N/A MISG        N/A
OAXACA         SUNNY     79  34  19 NE3       30.10F
P. ESCONDIDO   SUNNY     84  70  61 S7        29.96F
VERACRUZ       MOSUNNY   81  68  65 E8        29.88F
ZIHUATANEJO    MOSUNNY   86  73  66 SW12      29.88F HX  93

YUCATAN PENINSULA

CITY           SKY/WX    TMP DP  RH WIND       PRES   REMARKS
CAMPECHE       MOSUNNY   88  64  45 E12G25    29.90F
CANCUN         MOSUNNY   81  68  65 E15       30.03F
CHETUMAL       MOSUNNY   79  66  65 NE10      29.98F
CD. DEL CARMEN MOSUNNY   84  66  54 E14       29.91F
COZUMEL        MOSUNNY   82  68  61 E13       30.00F
MERIDA         PTSUNNY   88  63  42 E13       29.96F
MINATITLAN     MOSUNNY   81  72  74 CALM      29.88F
TAPACHULA      MOSUNNY   86  73  66 W7        29.85F HX  93
TUX. GUTIERREZ MOSUNNY   84  54  34 N7        29.90F
VILLAHERMOSA   SUNNY     84  64  51 E14       29.90F

CENTRAL AMERICA

CITY           SKY/WX    TMP DP  RH WIND       PRES   REMARKS
BELIZE CITY    PTSUNNY   84  73  70 SE14      29.95F HX  91
MANAGUA        PTCLDY    86  68  54 NE16      29.83S

CARIBBEAN

CITY           SKY/WX    TMP DP  RH WIND       PRES   REMARKS
ARUBA          MOSUNNY   82  72  69 E16       29.89S
CURACAO        MOSUNNY   82  72  69 E14       29.92S
KINGSTON       MOSUNNY   86  70  58 SE17      29.94S HX  90
NASSAU         MOSUNNY   75  61  60 E12       30.18S
SAN JUAN       MOSUNNY   82  66  57 E16       30.03S
SANTO DOMINGO  MOSUNNY   88  72  58 NE14      29.97S HX  94
ST. CROIX      MOSUNNY   81  64  57 NE13      30.00
ST. KITTS      MOSUNNY   81  68  65 NE18      29.97S
ST. MAARTEN    MOSUNNY   81  68  65 E16       30.00S
ST. THOMAS     MOSUNNY   82  66  57 NE16G22   30.01

$$





USA.gov is the U.S. government's official web portal to all federal, state and local government web resources and services.